Preview of NWS' New Version of Forecast
This preview is not operational and should not be used for support decisions.
Latest weather observations around

Canton, Cherokee County Airport (KCNI)

Using English Units (Switch to International System of Units)
Date/ Time (EDT) Wind (mph) Vis. (mi) Weather Sky Cond. Temp (°F) Rel. Humidity Wind Chill (°F) Heat Index (°F) Pressure Precip. (in)
Air Dwpt 6 hour Altimeter (inHg) Sea level (inHg) 1 hr 3 hr 6 hr
Max Min
Notice The following observation data may not be complete
Sep 21 17:10   10 Clear CLR          %              
Sep 21 16:50 Calm 10 Clear CLR 86        %     30.25        
Sep 21 16:30 Calm 10 Partly Cloudy SCT060 86 50     29%   84 30.24        
Sep 21 16:10 Calm 10 Partly Cloudy SCT060 88 50     27%   85 30.25        
Sep 21 15:50 Calm 10 Clear CLR 84 50     31%   82 30.26        
Sep 21 15:30 NE 5 10 Clear CLR 86        %     30.27        
Sep 21 15:10 ENE 3 10 Clear CLR 86        %     30.28        
Sep 21 14:50 Calm 10 Clear CLR 86        %     30.29        
Sep 21 14:30 Calm 10 Clear CLR 82 54     37%   81 30.3        
Sep 21 14:10 SSE 5 10 Clear CLR 84 54     35%   83 30.3        
Sep 21 13:50 ENE 3 10 Partly Cloudy SCT048 82 55     40%   82 30.31        
Sep 21 13:30 S 3 10 Partly Cloudy SCT045 81 54     39%   80 30.31        
Sep 21 13:10 Calm 10 Partly Cloudy SCT045 81 55     42%   81 30.32        
Sep 21 12:50 SW 6 10 Partly Cloudy SCT038 81 57     45%   81 30.33        
Sep 21 12:30 Calm 10 Mostly Cloudy BKN036 79 57     48%   79 30.34        
Sep 21 12:10 Calm 10 Partly Cloudy SCT036 79 59     51%   79 30.34        
Sep 21 11:50 Calm 10 Clear CLR 79 61     54%   79 30.35        
Sep 21 11:30 Calm 10 Clear CLR 77 61     57%   77 30.35        
Sep 21 11:10 Calm 10 Clear CLR 75 61     61%   75 30.36        
Sep 21 10:50 Calm 10 Clear CLR 73 61     65%   73 30.37        
Sep 21 10:30 E 5 10 Clear CLR 73 59     61%   73 30.37        
Sep 21 10:10 ENE 5 10 Clear CLR 72 57     60%   71 30.37        
Sep 21 09:50 Calm 10 Clear CLR 70 55     60%     30.37        
Sep 21 09:30 Calm 10 Clear CLR 64 55     73%     30.37        
Sep 21 09:10 Calm 10 Clear CLR 61 57     88%     30.37        
Sep 21 08:50 Calm 10 Clear CLR 61 55     82%     30.36        
Sep 21 08:30 Calm 10 Clear CLR 59 57     94%     30.36        
Sep 21 08:10 Calm 10 Clear CLR 55 54     94%     30.36        
Sep 21 07:50 Calm 10 Clear CLR 55 55     100%     30.35        
Sep 21 07:30 Calm 10 Clear CLR 55 54     94%     30.35        
Sep 21 07:10 Calm 10 Clear CLR 55 52     88%     30.35        
Sep 21 06:50 Calm 10 Clear CLR 59 55     88%     30.34        
Sep 21 06:30 Calm 10 Clear CLR 59 55     88%     30.33        
Sep 21 06:10 Calm 10 Clear CLR 54 54     100%     30.33        
Sep 21 05:50 NNE 3 10 Clear CLR 55 55     100%     30.32        
Sep 21 05:30 NNE 3 10 Clear CLR 54 54     100%     30.32        
Sep 21 05:10 Calm 10 Clear CLR 55 55     100%     30.32        
Sep 21 04:50 Calm 10 Clear CLR 57 55     94%     30.31        
Sep 21 04:30 Calm 10 Clear CLR 59 57     94%     30.31        
Sep 21 04:10 Calm 10 Clear CLR 59 57     94%     30.31        
Sep 21 03:50 Calm 10 Clear CLR 57 55     94%     30.31        
Sep 21 03:30 Calm 10 Clear CLR 61 57     88%     30.31        
Sep 21 03:10 Calm 10 Clear CLR 61 57     88%     30.31        
Sep 21 02:50 Calm 10 Clear CLR 61 57     88%     30.31        
Sep 21 02:30 Calm 10 Clear CLR 59 57     94%     30.31        
Sep 21 02:10 Calm 10 Clear CLR 61 57     88%     30.31        
Sep 21 01:50 Calm 10 Clear CLR 63 57     83%     30.31        
Sep 21 01:30 Calm 10 Clear CLR 61 57     88%     30.31        
Sep 21 01:10 Calm 10 Clear CLR 63 59     88%     30.31        
Sep 21 00:50 Calm 10 Clear CLR 63 55     77%     30.31        
Sep 21 00:30 Calm 10 Clear CLR 64 57     77%     30.31        
Sep 21 00:10 Calm 10 Clear CLR 63 59     88%     30.31        
Sep 20 23:50 Calm 10 Clear CLR 63 57     83%     30.31        
Sep 20 23:30 Calm 10 Clear CLR 64 57     77%     30.31        
Sep 20 23:10 Calm 10 Clear CLR 68 55     64%     30.3        
Sep 20 22:50 Calm 10 Clear CLR 68 55     64%     30.3        
Sep 20 22:30 Calm 10 Clear CLR 68 55     64%     30.3        
Sep 20 22:10 Calm 10 Clear CLR 68 55     64%     30.3        
Sep 20 21:50 Calm 10 Clear CLR 70 55     60%     30.3        
Sep 20 21:30 Calm 10 Clear CLR 70 55     60%     30.29        
Sep 20 21:10 Calm 10 Clear CLR 72 55     57%   71 30.28        
Sep 20 20:50 Calm 10 Clear CLR 72 55     57%   71 30.28        
Sep 20 20:30 Calm 10 Clear   73 55     53%   73 30.28        
Sep 20 20:10 Calm 10 Clear   73 54     50%   73 30.27        
Sep 20 19:50 ESE 3 10 Clear   75 54     47%   75 30.27        
Sep 20 19:30 ESE 3 10 Clear CLR 77 54     44%   76 30.27        
Sep 20 19:10 E 3 10 Clear CLR 79 54     42%   78 30.26        
Sep 20 18:50 E 5 10 Clear CLR 79 54     42%   78 30.26        
Sep 20 18:30 E 5 10 Clear   81 52     37%   80 30.26        
Sep 20 18:10 Calm 10 Clear   81 52     37%   80 30.26        
Sep 20 17:50 SE 6 10 Clear   81 52     37%   80 30.26        
Sep 20 17:30 E 6 10 Clear CLR 81 52     37%   80 30.26        
Sep 20 17:10 ESE 7 10 Clear CLR 82 52     35%   81 30.26        
Sep 20 16:50 ENE 3 10 Clear CLR 81 52     37%   80 30.26        
Sep 20 16:30 SSE 5 10 Clear CLR 81 52     37%   80 30.27        
Sep 20 16:10 E 8 10 Clear CLR 81 52     37%   80 30.27        
Sep 20 15:50 ESE 5 10 Clear CLR 81 52     37%   80 30.27        
Sep 20 15:30 ESE 9 10 Clear CLR 81 50     34%   80 30.27        
Sep 20 15:10 ESE 5 10 Clear CLR 81 50     34%   80 30.28        
Sep 20 14:50 ESE 8 10 Clear CLR 79 50     37%   78 30.29        
Sep 20 14:30 E 9 10 Clear CLR 79 50     37%   78 30.3        
Sep 20 14:10 SE 8 10 Clear CLR 79 50     37%   78 30.3        
Sep 20 13:50 ESE 3 10 Clear CLR 79 50     37%   78 30.31        
Sep 20 13:30 E 3 10 Clear CLR 79 50     37%   78 30.32        
Sep 20 13:10 Calm 10 Clear CLR 77 50     39%   76 30.32        
Sep 20 12:50 ENE 5 10 Clear CLR 77 50     39%   76 30.33        
Sep 20 12:30 Calm 10 Clear CLR 73 50     44%   72 30.34        
Sep 20 12:10 SE 7 10 Clear CLR 75 50     41%   74 30.35        
Sep 20 11:50 ENE 7 10 Clear CLR 73 52     47%   73 30.35        
Sep 20 11:30 Calm 10 Clear CLR 72 52     50%   71 30.36        
Sep 20 11:10 E 5 10 Clear CLR 72 54     53%   71 30.35        
Sep 20 10:50 SE 3 10 Clear CLR 70 54     56%     30.35        
Sep 20 10:30 E 3 10 Clear CLR 70 54     56%     30.35        
Sep 20 10:10 E 3 10 Clear CLR 68 54     60%     30.35        
Sep 20 09:50 ENE 8 10 Clear CLR 68 54     60%     30.34        
Sep 20 09:30 ENE 7 10 Clear CLR 66 54     64%     30.34        
Sep 20 09:10 E 5 10 Clear CLR 64 55     73%     30.34        
Sep 20 08:50 ENE 5 10 Clear CLR 64 55     73%     30.34        
Sep 20 08:30 Calm 10 Clear CLR 63 55     77%     30.33        
Sep 20 08:10 ENE 3 10 Clear CLR 61 55     82%     30.33        
Sep 20 07:50 ENE 3 10 Clear CLR 61 55     82%     30.33        
Sep 20 07:30 ENE 5 10 Clear CLR 61 55     82%     30.32        
Sep 20 07:10 ENE 5 10 Clear CLR 61 55     82%     30.31        
Sep 20 06:50 ENE 3 10 Clear CLR 61 55     82%     30.31        
Sep 20 06:30 ENE 5 10 Clear CLR 61 55     82%     30.3        
Sep 20 06:10 ENE 3 10 Clear CLR 61 55     82%     30.3        
Sep 20 05:50 Calm 10 Clear CLR 61 55     82%     30.29        
Sep 20 05:30 Calm 10 Clear CLR 61 55     82%     30.28        
Sep 20 05:10 Calm 10 Clear CLR 61 55     82%     30.28        
Sep 20 04:50 ENE 3 10 Clear CLR 61 55     82%     30.28        
Sep 20 04:30 Calm 10 Clear CLR 61 55     82%     30.27        
Sep 20 04:10 E 3 10 Clear CLR 63 55     77%     30.27        
Sep 20 03:50 Calm 10 Clear CLR 63 55     77%     30.28        
Sep 20 03:30 Calm 10 Partly Cloudy SCT085 63 55     77%     30.28        
Sep 20 03:10 Calm 10 Mostly Cloudy SCT070 BKN085 63 55     77%     30.28        
Sep 20 02:50 E 3 10 Cloudy SCT048 BKN070 OVC085 63 55     77%     30.28        
Sep 20 02:30 E 3 10 Cloudy BKN048 OVC070 64 55     73%     30.28        
Notice The following observation data may not be complete
Sep 20 02:10   10 Mostly Cloudy SCT050 BKN070          %              
Sep 20 01:50 ENE 6 10 Mostly Cloudy BKN070 64 55     73%     30.28        
Sep 20 01:30 Calm 10 Cloudy OVC070 64 55     73%     30.28        
Sep 20 01:10 ENE 3 10 Partly Cloudy SCT070 64 55     73%     30.28        
Sep 20 00:50 ENE 5 10 Clear CLR 64 55     73%     30.27        
Sep 20 00:30 E 3 10 Partly Cloudy SCT070 SCT085 64 55     73%     30.27        
Sep 20 00:10 ENE 5 10 Cloudy BKN070 OVC085 66 55     68%     30.27        
Sep 19 23:50 E 5 10 Mostly Cloudy SCT070 BKN085 66 55     68%     30.27        
Sep 19 23:30 ENE 3 10 Clear CLR 66 55     68%     30.27        
Sep 19 23:10 Calm 10 Clear CLR 66 55     68%     30.26        
Sep 19 22:50 Calm 10 Clear CLR 66 55     68%     30.26        
Sep 19 22:30 Calm 10 Clear CLR 68 55     64%     30.26        
Sep 19 22:10 Calm 10 Clear CLR 68 55     64%     30.25        
Sep 19 21:50 Calm 10 Clear CLR 70 54     56%     30.25        
Sep 19 21:30 ENE 5 10 Clear CLR 70 54     56%     30.24        
Sep 19 21:10 ENE 3 10 Partly Cloudy SCT065 70 54     56%     30.23        
Sep 19 20:50 E 3 10 Mostly Cloudy BKN065 72 54     53%   71 30.22        
Sep 19 20:30 Calm 10 Clear CLR 72 54     53%   71 30.22        
Sep 19 20:10 ENE 3 10 Clear CLR 72 54     53%   71 30.21        
Sep 19 19:50 ENE 3 10 Clear CLR 73 54     50%   73 30.21        
Sep 19 19:30 E 5 10 Clear CLR 73 54     50%   73 30.21        
Sep 19 19:10 E 5 10 Clear CLR 75 54     47%   75 30.2        
Sep 19 18:50 ESE 10 10 Clear CLR 77 54     44%   76 30.2        
Sep 19 18:30 ESE 8 10 Clear CLR 77 54     44%   76 30.2        
Sep 19 18:10 SE 7 10 Clear CLR 79 54     42%   78 30.2        
Sep 19 17:50 ESE 8 10 Clear CLR 79 54     42%   78 30.2        
Sep 19 17:30 SE 6 10 Clear CLR 79 54     42%   78 30.2        
Sep 19 17:10 ESE 5 10 Clear CLR 79 54     42%   78 30.2        
Sep 19 16:50 SE 6 10 Clear CLR 81 54     39%   80 30.2        
Sep 19 16:30 ESE 10 10 Partly Cloudy SCT044 81 54     39%   80 30.2        
Sep 19 16:10 ENE 6 10 Partly Cloudy SCT044 81 54     39%   80 30.21        
Sep 19 15:50 ESE 10 10 Partly Cloudy SCT044 81 54     39%   80 30.21        
Sep 19 15:30 ENE 9 10 Clear CLR 81 54     39%   80 30.21        
Sep 19 15:10 ESE 7 10 Clear CLR 81 52     37%   80 30.22        
Sep 19 14:50 SE 8 10 Partly Cloudy SCT043 79 52     39%   78 30.23        
Sep 19 14:30 SE 8 10 Clear CLR 79 52     39%   78 30.23        
Sep 19 14:10 E 9 10 Clear CLR 79 52     39%   78 30.23        
Sep 19 13:50 ESE 9 10 Clear CLR 77 52     41%   76 30.24        
Sep 19 13:30 ESE 8 10 Clear CLR 77 50     39%   76 30.25        
Sep 19 13:10 SE 9 10 Clear CLR 77 52     41%   76 30.25        
Sep 19 12:50 E 9 10 Clear CLR 77 52     41%   76 30.25        
Sep 19 12:30 ENE 13 10 Clear CLR 77 52     41%   76 30.26        
Sep 19 12:10 ENE 9 10 Clear CLR 77 52     41%   76 30.26        
Sep 19 11:50 ESE 13 10 Clear CLR 73 52     47%   73 30.26        
Sep 19 11:30 E 7 10 Clear CLR 73 52     47%   73 30.26        
Sep 19 11:10 ESE 11 10 Clear CLR 73 52     47%   73 30.27        
Sep 19 10:50 E 7 10 Clear CLR 73 54     50%   73 30.26        
Sep 19 10:30 E 5 10 Clear CLR 73 55     53%   73 30.26        
Sep 19 10:10 ESE 13 10 Partly Cloudy SCT080 SCT095 72 55     57%   71 30.26        
Sep 19 09:50 E 8 10 Mostly Cloudy SCT050 BKN095 72 55     57%   71 30.25        
Sep 19 09:30 E 5 10 Cloudy OVC050 70 59     69%     30.25        
Sep 19 09:10 E 5 10 Cloudy BKN050 OVC080 70 59     69%     30.25        
Sep 19 08:50 E 5 10 Cloudy SCT050 OVC070 68 59     73%     30.24        
Sep 19 08:30 E 3 10 Cloudy BKN048 OVC070 68 61     78%     30.23        
Sep 19 08:10 Calm 10 Mostly Cloudy BKN048 BKN070 66 61     83%     30.23        
Sep 19 07:50 Calm 10 Partly Cloudy SCT095 66 61     83%     30.22        
Sep 19 07:30 Calm 10 Partly Cloudy SCT095 66 61     83%     30.21        
Sep 19 07:10 Calm 10 Partly Cloudy SCT095 68 61     78%     30.21        
Sep 19 06:50 Calm 10 Mostly Cloudy SCT075 BKN095 68 61     78%     30.2        
Sep 19 06:30 Calm 10 Partly Cloudy SCT075 68 61     78%     30.19        
Sep 19 06:10 ENE 3 10 Cloudy SCT050 OVC075 68 61     78%     30.19        
Sep 19 05:50 ENE 3 10 Cloudy OVC050 68 61     78%     30.18        
Sep 19 05:30 Calm 10 Cloudy BKN050 OVC070 68 61     78%     30.18        
Sep 19 05:10 Calm 10 Cloudy OVC050 68 61     78%     30.18        
Sep 19 04:50 ENE 3 10 Cloudy OVC050 68 61     78%     30.18        
Sep 19 04:30 Calm 10 Mostly Cloudy BKN050 BKN070 68 61     78%     30.18        
Sep 19 04:10 Calm 10 Partly Cloudy SCT050 68 61     78%     30.17        
Sep 19 03:50 Calm 10 Partly Cloudy SCT048 68 61     78%     30.17        
Sep 19 03:30 Calm 10 Mostly Cloudy BKN048 68 61     78%     30.17        
Sep 19 03:10 ENE 3 10 Cloudy OVC046 68 61     78%     30.17        
Sep 19 02:50 Calm 10 Cloudy OVC044 68 61     78%     30.17        
Sep 19 02:30 Calm 10 Cloudy OVC042 68 61     78%     30.17        
Sep 19 02:10 ENE 3 10 Cloudy OVC040 70 61     73%     30.17        
Sep 19 01:50 ENE 3 10 Cloudy OVC038 70 61     73%     30.18        
Sep 19 01:30 E 3 10 Cloudy OVC036 70 61     73%     30.18        
Sep 19 01:10 ENE 3 10 Cloudy OVC036 70 61     73%     30.17        
Sep 19 00:50 E 5 10 Cloudy OVC034 68 61     78%     30.17        
Sep 19 00:30 E 5 10 Cloudy OVC034 68 61     78%     30.17        
Sep 19 00:10 E 5 10 Cloudy OVC032 68 61     78%     30.17        
Sep 18 23:50 E 3 10 Partly Cloudy SCT032 68 61     78%     30.17        
Sep 18 23:30 ENE 3 10 Clear CLR 68 61     78%     30.17        
Sep 18 23:10 Calm 10 Clear CLR 70 61     73%     30.17        
Sep 18 22:50 Calm 10 Clear CLR 70 61     73%     30.17        
Sep 18 22:30 E 3 10 Clear CLR 70 61     73%     30.16        
Sep 18 22:10 ENE 3 10 Clear CLR 70 63     78%     30.15        
Sep 18 21:30 ENE 6 10 Clear CLR 72 63     73%   72 30.14        
Sep 18 20:50 ENE 5 10 Clear CLR 72 63     73%   72 30.13        
Sep 18 20:30 Calm 10 Clear CLR 73 64     73%   74 30.12        
Sep 18 20:10 ENE 3 10 Clear CLR 73 64     73%   74 30.12        
Sep 18 19:50 Calm 10 Clear CLR 73 64     73%   74 30.11        
Sep 18 19:30 ENE 7 10 Clear CLR 75 64     69%   76 30.1        
Sep 18 19:10 E 6 10 Clear CLR 77 64     65%   77 30.1        
Sep 18 18:50 E 9 10 Clear CLR 77 64     65%   77 30.09        
Sep 18 18:30 ENE 6 10 Clear CLR 79 64     61%   79 30.09        
Sep 18 18:10 E 5 10 Clear CLR 79 64     61%   79 30.09        
Sep 18 17:50 E 8 10 Partly Cloudy SCT022 79 64     61%   79 30.1        
Sep 18 17:30 ENE 10 10 Mostly Cloudy BKN022 BKN050 79 64     61%   79 30.1        
Sep 18 17:10 ENE 7 10 Mostly Cloudy SCT022 BKN050 79 64     61%   79 30.11        
Sep 18 16:50 ENE 11 10 Cloudy SCT023 OVC050 81 64     58%   82 30.1        
Sep 18 16:30 ENE 9 10 Cloudy SCT023 OVC050 82 64     55%   84 30.11        
Sep 18 15:50 ENE 10 10 Cloudy SCT025 BKN031 OVC050 81 64     58%   82 30.11        
Sep 18 15:30 ENE 10 10 Cloudy BKN025 BKN032 OVC050 81 64     58%   82 30.11        
Sep 18 15:10 E 9 10 Cloudy SCT025 BKN032 OVC048 81 64     58%   82 30.11        
Sep 18 14:50 ENE 8 10 Cloudy SCT025 SCT034 OVC048 82 66     58%   85 30.11        
Sep 18 14:30 ENE 8 10 Cloudy SCT025 BKN036 OVC045 81 66     62%   83 30.11        
May 15 14:55 ESE 11 10 Mostly Cloudy SCT028 BKN032 BKN120 82        %     30.01        
May 15 13:55 ENE 6 10 Partly Cloudy SCT120 81 63     54%   82 30.03        
May 15 07:35 Calm 10 Mostly Cloudy SCT027 BKN036 BKN070 70 63     78%     30.07        
May 14 21:35 Calm 10 Clear CLR 81        %     30        
May 14 20:15 Calm 10 Clear CLR 84        %     30        
May 14 11:55 WNW 5 10 Clear CLR 86        %     30.08        
Notice The following observation data may not be complete
May 14 09:55 Calm 10 Clear CLR   61      %     30.09        
May 14 08:35 Calm 10 Clear CLR 68 63     83%     30.09        
May 14 05:35 Calm 7 Clear CLR 63 61     94%     30.05        
May 14 00:35 Calm 10 Clear CLR 70 61     73%              
May 13 20:55 Calm 10 Clear CLR 79 59     51%   79 30.08        
May 13 13:15 WNW 10 10 Clear   86        %     30.15        
May 13 05:55 Calm 10 Clear CLR 59 54     82%     30.13        
May 13 05:15 Calm 10 Clear CLR 61 57     88%     30.12        
May 13 01:15 Calm 10 Clear CLR 63 55     77%     30.12        
May 12 18:15 WNW 5 10 Clear CLR 88        %     30.13        
May 12 14:35 W 3 10 Clear CLR 88        %     30.17        
May 12 08:15 Calm 7 Clear CLR 64 61     88%     30.2        
May 12 07:35 Calm 7 Clear CLR 63 61     94%     30.19        
May 12 04:35 Calm 4 Clear   63 61     94%     30.15        
May 11 21:55 Calm 10 Clear CLR 72 63     73%   72 30.13        
Notice The following observation data may not be complete
May 11 20:55 Calm 10 Clear CLR          %     30.12        
May 11 19:55 Calm 10 Clear CLR 82        %     30.11        
May 11 19:35 Calm 10 Clear CLR 84        %     30.11        
May 11 14:35 Calm 10 Clear CLR 86        %     30.14        
May 11 11:35 WNW 8 10 Clear CLR 81        %     30.18        
May 11 09:55 Calm 10 Clear CLR 73 63     69%   74 30.17        
Jun 12 08:55 Calm 10 Cloudy BKN008 OVC012 72 66     83%   72 30.25        
Jun 12 02:35 Calm 10 Clear CLR 73 64     73%   74 30.21        
Jun 11 23:35 E 3 10 Mostly Cloudy SCT029 BKN049 77 63     61%   77 30.21        
Jun 11 22:55 ESE 3 10 Partly Cloudy SCT049 77        %     30.21        
Jun 11 19:55 Calm 10 Partly Cloudy SCT055 82        %     30.17        
Jun 11 16:15 E 8 10 Partly Cloudy SCT038 88        %     30.2        
Jun 11 15:15 E 6 10 Mostly Cloudy SCT037 SCT042 BKN055 86        %     30.22        
Jun 11 07:35 Calm 10 Partly Cloudy SCT008 64 61     88%     30.21        
Jun 10 23:15 Calm 10 Clear CLR 73        %     30.18        
Jun 10 22:35 Calm 10 Clear CLR 75        %     30.16        
Jun 10 19:55 Calm 10 Mostly Cloudy BKN060 BKN075 82        %     30.11        
Jun 10 19:35 Calm 10 Partly Cloudy SCT060 81        %     30.1        
Jun 10 16:15 ENE 5 10 Partly Cloudy SCT055 SCT080 86        %     30.12        
Jun 10 11:35 Calm 10 Partly Cloudy SCT070 79        %     30.15        
Jun 10 11:15 Calm 10 Partly Cloudy SCT060 SCT070 77        %     30.16        
Jun 10 10:55 Calm 10 Mostly Cloudy SCT050 BKN070 77        %     30.16        
Jun 10 05:55 Calm 5 Fog/Mist CLR 59 55     88%     30.07        
Jun 10 05:15 Calm 5 Fog/Mist CLR 59 55     88%     30.06        
Jun 09 18:15 WNW 7 10 Clear CLR 81 46     30%   80 29.97        
Notice The following observation data may not be complete
Jun 09 15:35   10 Partly Cloudy SCT070          %              
Notice The following observation data may not be complete
Jun 09 15:15   10 Clear CLR          %              
Jun 09 14:55 WNW 3 10 Clear CLR 81        %     30        
Jun 09 09:55 Calm 10 Clear CLR 70 55     60%     30.02        
Jun 09 06:15 Calm 5 Fog/Mist CLR 59 55     88%     29.97        
Jun 08 23:35 Calm 10 Clear CLR 66 59     78%     29.93        
Jun 08 13:35 SSW 3 10 Partly Cloudy SCT036 SCT060 SCT085 75 48     38%   74 29.95        
Jun 08 12:35 ENE 3 10 Partly Cloudy SCT031 SCT041 SCT050 73        %     29.96        
Jun 08 10:15 ENE 7 10 Partly Cloudy SCT016 SCT100 70 54     56%     29.97        
Jun 08 09:35 ENE 5 10 Partly Cloudy SCT012 68 54     60%     29.97        
Jun 07 23:35 Calm 10 Light Drizzle SCT037 SCT042 OVC050 66 59     78%     29.91        
Jun 07 22:55 Calm 10 Cloudy BKN036 BKN055 OVC070 68 55     64%     29.91        
Jun 07 19:55 E 5 10 Mostly Cloudy SCT050 BKN075 77 52     41%   76 29.86        
Jun 07 16:15 Calm 10 Mostly Cloudy SCT060 BKN090 77 52     41%   76 29.85        
Jun 07 13:35 E 3 10 Clear CLR 79        %     29.86        
Notice The following observation data may not be complete
Jun 07 09:35   10 Mostly Cloudy BKN060 BKN070          %              
Jun 06 15:15 WNW 3 10 Clear CLR 79 61     54%   79 29.8        
Jun 06 06:35 Calm 1.25 Fog/Mist BKN009 70 66     88%     29.84        
Jun 06 05:55 Calm 1.5 Light Rain SCT005 BKN120 70 68     94%     29.84        
Notice The following observation data may not be complete
Jun 06 04:35   5 Fog/Mist OVC003          %              
Notice The following observation data may not be complete
Jun 06 03:35   7 Partly Cloudy SCT003 SCT080 SCT120          %              
Jun 06 01:35 Calm 7 Partly Cloudy SCT120 70 68     94%     29.86        
Jun 05 22:55 W 3 10 Clear   72 68     88%   73 29.87